Idabel, OK

12:58 PM CDT on June 25, 2017 (GMT -0500)
Idabel

Weather History for K4O4 - March, 2013

Change the Weather History Date:

Thursday, March 21, 2013

  Actual Average (KPRX) Record (KPRX)
Temperature  
Mean Temperature 44 °F -  
Max Temperature 48 °F 63 °F 82 °F (1997)
Min Temperature 39 °F 44 °F 33 °F (2016)
Degree Days  
Heating Degree Days 22    
Moisture  
Dew Point 30 °F    
Average Humidity 62    
Maximum Humidity 87    
Minimum Humidity 34    
Precipitation  
Precipitation 0.05 in - - ()
Sea Level Pressure  
Sea Level Pressure 29.91 in    
Wind  
Wind Speed 10 mph (East)    
Max Wind Speed 18 mph    
Max Gust Speed 26 mph    
Visibility 10 miles    
Events      
Averages and records for this station are not official NWS values.
T = Trace of Precipitation, MM = Missing Value Source: NWS Daily Summary

Daily Weather History Graph

Daily Weather History Graph

Search for Another Location

Airport or City:

Trip Planner

Search our weather history database for the weather conditions in past years. The results will help you decide how hot, cold, wet, or windy it might be!

Date:

Astronomy

Mar. 21, 2013 Rise Set
Actual Time 7:21 AM CDT 7:32 PM CDT
Civil Twilight 6:56 AM CDT 7:57 PM CDT
Nautical Twilight 6:27 AM CDT 8:26 PM CDT
Astronomical Twilight 5:57 AM CDT 8:55 PM CDT
Moon 2:15 PM CDT (3/21) 3:30 AM CDT (3/21)
Length of Visible Light 13h 00m
Length of Day
12h 10m
Waxing Gibbous, 69% of the Moon is Illuminated
Mar 21
Waxing Gibbous
Mar 27
Full
Apr 2
Last Quarter
Apr 10
New
Apr 18
First Quarter

Hourly Weather History & Observations

Time (CDT) Temp. Windchill Dew Point Humidity Pressure Visibility Wind Dir Wind Speed Gust Speed Precip Events Conditions
12:15 AM 44.6 °F 42.2 °F 30.2 °F 57% 30.08 in 10.0 mi East 4.6 mph - N/A   Clear
12:35 AM 44.6 °F 41.4 °F 30.2 °F 57% 30.07 in 10.0 mi ENE 5.8 mph - N/A   Clear
12:55 AM 44.6 °F 41.4 °F 30.2 °F 57% 30.07 in 10.0 mi ENE 5.8 mph - N/A   Clear
1:15 AM 44.6 °F 40.7 °F 30.2 °F 57% 30.06 in 10.0 mi ENE 6.9 mph - N/A   Clear
1:35 AM 44.6 °F 41.4 °F 30.2 °F 57% 30.06 in 10.0 mi East 5.8 mph - N/A   Clear
1:55 AM 44.6 °F 39.7 °F 28.4 °F 53% 30.05 in 10.0 mi East 9.2 mph - N/A   Clear
2:35 AM 44.6 °F 39.7 °F 28.4 °F 53% 30.04 in 10.0 mi East 9.2 mph - N/A   Clear
2:55 AM 44.6 °F 39.7 °F 28.4 °F 53% 30.03 in 10.0 mi ESE 9.2 mph - N/A   Clear
3:15 AM 42.8 °F 37.5 °F 28.4 °F 57% 30.02 in 10.0 mi ESE 9.2 mph - N/A   Clear
3:35 AM 42.8 °F 38.6 °F 28.4 °F 57% 30.02 in 10.0 mi ESE 6.9 mph - N/A   Clear
3:55 AM 42.8 °F 37.5 °F 28.4 °F 57% 30.01 in 10.0 mi ESE 9.2 mph - N/A   Clear
4:15 AM 42.8 °F 37.0 °F 28.4 °F 57% 30.00 in 10.0 mi ESE 10.4 mph - N/A   Clear
4:35 AM 42.8 °F 36.6 °F 28.4 °F 57% 30.00 in 10.0 mi ESE 11.5 mph - N/A   Clear
4:55 AM 42.8 °F 36.6 °F 28.4 °F 57% 30.00 in 10.0 mi ESE 11.5 mph 18.4 mph N/A   Clear
5:15 AM 42.8 °F 37.5 °F 28.4 °F 57% 29.99 in 10.0 mi ESE 9.2 mph - N/A   Clear
5:35 AM 42.8 °F 36.6 °F 28.4 °F 57% 29.99 in 10.0 mi East 11.5 mph 16.1 mph N/A   Clear
5:55 AM 42.8 °F 37.0 °F 28.4 °F 57% 29.99 in 10.0 mi East 10.4 mph - N/A   Clear
6:15 AM 41.0 °F 34.7 °F 28.4 °F 61% 29.99 in 10.0 mi ESE 10.4 mph - N/A   Clear
6:35 AM 42.8 °F 36.6 °F 26.6 °F 53% 30.00 in 10.0 mi ESE 11.5 mph 16.1 mph N/A   Clear
6:55 AM 42.8 °F 36.6 °F 26.6 °F 53% 30.01 in 10.0 mi ESE 11.5 mph 16.1 mph N/A   Clear
7:15 AM 42.8 °F 36.2 °F 26.6 °F 53% 30.01 in 10.0 mi ESE 12.7 mph - N/A   Clear
7:35 AM 42.8 °F 36.6 °F 26.6 °F 53% 30.01 in 10.0 mi East 11.5 mph - N/A   Clear
7:55 AM 42.8 °F 35.4 °F 26.6 °F 53% 30.02 in 10.0 mi ESE 15.0 mph 20.7 mph N/A   Clear
8:15 AM 42.8 °F 36.2 °F 26.6 °F 53% 30.02 in 10.0 mi ESE 12.7 mph 20.7 mph N/A   Clear
8:35 AM 42.8 °F 35.1 °F 23.0 °F 46% 30.00 in 10.0 mi ESE 16.1 mph 21.9 mph N/A   Clear
8:55 AM 42.8 °F 35.8 °F 21.2 °F 42% 30.01 in 10.0 mi ESE 13.8 mph - N/A   Clear
9:15 AM 42.8 °F 35.1 °F 21.2 °F 42% 30.01 in 10.0 mi ESE 16.1 mph 19.6 mph N/A   Clear
9:35 AM 44.6 °F 38.1 °F 21.2 °F 39% 30.01 in 10.0 mi ESE 13.8 mph 20.7 mph N/A   Scattered Clouds
9:55 AM 42.8 °F 35.8 °F 21.2 °F 42% 30.00 in 10.0 mi ESE 13.8 mph 20.7 mph N/A   Scattered Clouds
10:15 AM 44.6 °F 38.4 °F 21.2 °F 39% 29.99 in 10.0 mi ESE 12.7 mph - N/A   Scattered Clouds
10:35 AM 44.6 °F 37.4 °F 21.2 °F 39% 29.99 in 10.0 mi ESE 16.1 mph 23.0 mph N/A   Scattered Clouds
10:55 AM 46.4 °F 40.1 °F 19.4 °F 34% 29.98 in 10.0 mi East 15.0 mph 24.2 mph N/A   Scattered Clouds
11:15 AM 46.4 °F 40.4 °F 21.2 °F 37% 29.98 in 10.0 mi ESE 13.8 mph 18.4 mph N/A   Mostly Cloudy
12:15 PM 48.2 °F - 23.0 °F 37% 29.95 in 10.0 mi SE 11.5 mph - N/A   Overcast
12:55 PM 44.6 °F 38.8 °F 32.0 °F 61% 29.92 in 5.0 mi ESE 11.5 mph - N/A   Overcast
1:15 PM 42.8 °F 37.0 °F 32.0 °F 66% 29.92 in 7.0 mi ESE 10.4 mph - N/A   Overcast
1:35 PM 42.8 °F 36.6 °F 33.8 °F 70% 29.90 in 10.0 mi East 11.5 mph - 0.01 in   Overcast
2:15 PM 41.0 °F 34.3 °F 32.0 °F 70% 29.87 in 10.0 mi East 11.5 mph 18.4 mph 0.01 in   Mostly Cloudy
2:35 PM 42.8 °F 35.8 °F 33.8 °F 70% 29.85 in 10.0 mi East 13.8 mph - 0.01 in   Mostly Cloudy
2:55 PM 42.8 °F 34.8 °F 33.8 °F 70% 29.83 in 10.0 mi East 17.3 mph 21.9 mph 0.01 in   Overcast
3:15 PM 42.8 °F 35.1 °F 33.8 °F 70% 29.81 in 10.0 mi East 16.1 mph 24.2 mph N/A   Mostly Cloudy
3:35 PM 42.8 °F 34.5 °F 33.8 °F 70% 29.79 in 10.0 mi East 18.4 mph 26.5 mph N/A   Scattered Clouds
3:55 PM 42.8 °F 34.5 °F 33.8 °F 70% 29.79 in 10.0 mi East 18.4 mph 24.2 mph N/A   Mostly Cloudy
4:15 PM 42.8 °F 34.8 °F 33.8 °F 70% 29.79 in 10.0 mi East 17.3 mph 25.3 mph N/A   Overcast
4:55 PM 42.8 °F 35.4 °F 35.6 °F 76% 29.77 in 10.0 mi East 15.0 mph 20.7 mph N/A   Overcast
5:15 PM 42.8 °F 34.8 °F 35.6 °F 76% 29.76 in 10.0 mi East 17.3 mph 24.2 mph N/A   Mostly Cloudy
5:35 PM 42.8 °F 34.8 °F 35.6 °F 76% 29.75 in 10.0 mi East 17.3 mph 20.7 mph N/A   Scattered Clouds
5:55 PM 44.6 °F 37.8 °F 35.6 °F 71% 29.74 in 10.0 mi East 15.0 mph 20.7 mph N/A   Scattered Clouds
6:15 PM 44.6 °F 38.4 °F 35.6 °F 71% 29.75 in 10.0 mi East 12.7 mph 20.7 mph N/A   Scattered Clouds
6:35 PM 42.8 °F 36.2 °F 35.6 °F 76% 29.75 in 10.0 mi East 12.7 mph - N/A   Mostly Cloudy
6:55 PM 42.8 °F 36.6 °F 35.6 °F 76% 29.75 in 10.0 mi East 11.5 mph 18.4 mph N/A   Mostly Cloudy
7:15 PM 42.8 °F 36.2 °F 35.6 °F 76% 29.75 in 10.0 mi East 12.7 mph - N/A   Mostly Cloudy
7:35 PM 42.8 °F 36.2 °F 35.6 °F 76% 29.75 in 10.0 mi East 12.7 mph 16.1 mph N/A   Scattered Clouds
7:55 PM 42.8 °F 36.6 °F 35.6 °F 76% 29.74 in 10.0 mi East 11.5 mph 16.1 mph N/A   Mostly Cloudy
8:15 PM 41.0 °F 33.5 °F 35.6 °F 81% 29.74 in 10.0 mi East 13.8 mph - N/A   Mostly Cloudy
8:35 PM 41.0 °F 33.9 °F 35.6 °F 81% 29.74 in 10.0 mi East 12.7 mph - N/A   Overcast
9:15 PM 41.0 °F 34.7 °F 33.8 °F 76% 29.75 in 10.0 mi East 10.4 mph 21.9 mph N/A   Mostly Cloudy
9:35 PM 41.0 °F 34.3 °F 33.8 °F 76% 29.75 in 10.0 mi East 11.5 mph 21.9 mph N/A   Scattered Clouds
10:15 PM 41.0 °F 33.5 °F 35.6 °F 81% 29.75 in 10.0 mi East 13.8 mph 20.7 mph N/A   Overcast
10:35 PM 41.0 °F 34.3 °F 35.6 °F 81% 29.75 in 10.0 mi East 11.5 mph 20.7 mph N/A   Overcast
10:55 PM 41.0 °F 32.5 °F 35.6 °F 81% 29.75 in 7.0 mi East 17.3 mph 21.9 mph 0.03 in   Overcast
11:15 PM 41.0 °F 33.5 °F 35.6 °F 81% 29.76 in 10.0 mi East 13.8 mph 20.7 mph N/A   Overcast
11:35 PM 39.2 °F 30.8 °F 35.6 °F 87% 29.75 in 10.0 mi East 15.0 mph 18.4 mph N/A   Overcast
11:55 PM 39.2 °F 32.0 °F 35.6 °F 87% 29.77 in 10.0 mi ENE 11.5 mph - N/A   Overcast